Location: Mahannah Oil Field
(37.4664°N, 96.6003°W)
Time: 01:53:49
(UTC+00:00)

deb Explorer IX - Pass Details

Date: 30 January 2021
Orbit: 537 x 1102 km, 38.8° (Epoch: 25 February)

Event Time Altitude Azimuth Distance (km) Brightness Sun altitude
Rises 04:14:10 0° 277° (W) 3,407 ? -52.5°
Enters shadow 04:15:01 - 273° (W) 3,140 ? -52.6°
Reaches altitude 10° 04:17:56 10° 255° (WSW) 2,333 - -53.2°
Maximum altitude 04:20:53 15° 222° (SW) 1,915 - -53.7°
Drops below altitude 10° 04:23:36 10° 188° (S) 2,124 - -54.2°
Sets 04:26:47 0° 164° (SSE) 2,923 - -54.8°
